TimeCST,TemperatureF,Dew PointF,Humidity,Sea Level PressureIn,VisibilityMPH,Wind Direction,Wind SpeedMPH,Gust SpeedMPH,PrecipitationIn,Events,Conditions,WindDirDegrees,DateUTC
12:53 AM,37.0,34.0,89,29.70,8.0,North,4.6,-,N/A,,Partly Cloudy,360,2012-12-16 06:53:00
1:53 AM,37.0,34.0,89,29.70,8.0,North,4.6,-,N/A,,Scattered Clouds,10,2012-12-16 07:53:00
2:53 AM,37.0,34.0,89,29.70,8.0,NE,6.9,-,N/A,,Scattered Clouds,40,2012-12-16 08:53:00
3:53 AM,37.9,36.0,93,29.71,7.0,NNE,5.8,-,N/A,,Scattered Clouds,30,2012-12-16 09:53:00
4:53 AM,37.9,36.0,93,29.72,6.0,NE,5.8,-,N/A,,Partly Cloudy,40,2012-12-16 10:53:00
5:53 AM,37.9,36.0,93,29.73,6.0,NNE,6.9,-,N/A,,Clear,30,2012-12-16 11:53:00
6:53 AM,36.0,34.0,93,29.73,5.0,NE,6.9,-,N/A,,Partly Cloudy,40,2012-12-16 12:53:00
7:53 AM,35.1,34.0,96,29.75,4.0,NNE,9.2,-,N/A,,Partly Cloudy,20,2012-12-16 13:53:00
8:53 AM,37.0,35.1,93,29.75,4.0,NNE,10.4,-,N/A,,Partly Cloudy,30,2012-12-16 14:53:00
9:53 AM,39.9,36.0,86,29.75,5.0,North,15.0,-,N/A,,Scattered Clouds,10,2012-12-16 15:53:00
10:39 AM,42.8,35.6,76,29.74,5.0,NNE,12.7,-,N/A,,Haze,30,2012-12-16 16:39:00
10:53 AM,41.0,35.1,79,29.76,5.0,North,12.7,-,N/A,,Haze,10,2012-12-16 16:53:00
11:53 AM,41.0,34.0,76,29.72,5.0,North,16.1,-,N/A,,Haze,360,2012-12-16 17:53:00
12:53 PM,42.1,35.1,76,29.72,7.0,North,10.4,-,N/A,,Overcast,350,2012-12-16 18:53:00
1:53 PM,45.0,35.1,68,29.69,7.0,NNE,12.7,-,N/A,,Overcast,20,2012-12-16 19:53:00
2:30 PM,44.6,33.8,66,29.68,8.0,NNE,8.1,-,N/A,,Scattered Clouds,30,2012-12-16 20:30:00
2:53 PM,46.9,34.0,61,29.71,9.0,ENE,3.5,-,N/A,,Scattered Clouds,60,2012-12-16 20:53:00
3:53 PM,45.0,33.1,63,29.74,10.0,North,10.4,-,N/A,,Mostly Cloudy,360,2012-12-16 21:53:00
4:53 PM,43.0,33.1,68,29.74,10.0,North,8.1,-,N/A,,Mostly Cloudy,360,2012-12-16 22:53:00
5:53 PM,42.1,33.1,70,29.75,9.0,North,5.8,-,N/A,,Mostly Cloudy,360,2012-12-16 23:53:00
6:53 PM,39.9,30.9,70,29.78,8.0,North,9.2,-,N/A,,Mostly Cloudy,10,2012-12-17 00:53:00
7:53 PM,37.9,34.0,86,29.80,6.0,NNE,5.8,-,N/A,,Overcast,30,2012-12-17 01:53:00
8:53 PM,36.0,33.1,89,29.83,5.0,North,4.6,-,N/A,,Overcast,10,2012-12-17 02:53:00
9:53 PM,34.0,30.9,89,29.83,5.0,NNE,8.1,-,N/A,,Overcast,20,2012-12-17 03:53:00
10:23 PM,33.8,30.2,87,29.81,4.0,North,5.8,-,N/A,,Overcast,10,2012-12-17 04:23:00
10:53 PM,34.0,32.0,92,29.83,4.0,North,5.8,-,N/A,,Overcast,360,2012-12-17 04:53:00
11:53 PM,35.1,32.0,89,29.83,4.0,North,6.9,-,N/A,,Overcast,360,2012-12-17 05:53:00